Regional Weather Roundup
Issued by NWS

Home | Current Version | Previous Version | Text Only | Print | Product List | Glossary Off
Versions: 1 2 3 4 5 6 7 8 9 10 11 12 13 14 15 16 17 18 19 20 21 22 23 24 25 26 27 28 29 30 31 32 33 34 35 36 37 38 39 40 41 42 43 44 45 46 47 48 49 50

000
ASUS43 KMKX 190221
RWRWI

WISCONSIN REGIONAL WEATHER ROUNDUP
NATIONAL WEATHER SERVICE MILWAUKEE/SULLIVAN WI
900 PM CDT THU SEP 18 2014

NOTE: "FAIR" INDICATES FEW OR NO CLOUDS BELOW 12,000 FEET WITH NO
SIGNIFICANT WEATHER AND/OR OBSTRUCTIONS TO VISIBILITY.

WIZ001-002-006>008-014>016-023>028-190300-
NORTHWEST WISCONSIN

CITY           SKY/WX    TMP DP  RH WIND       PRES   REMARKS
SUPERIOR ARPT  CLOUDY    49  47  93 NE7       30.05F
ASHLAND        CLEAR     41  40  96 CALM      30.08F
HAYWARD        CLEAR     54  51  90 S5        30.07S
SIREN          CLEAR     56  53  89 SE8       30.03F
RICE LAKE      CLEAR     54  51  89 E7        30.08R
LADYSMITH      CLEAR     52  50  91 SE5       30.12R
EAU CLAIRE     CLEAR     56  51  84 SE7       30.08
MENOMONIE      PTCLDY    56  53  90 E7        30.07R
NEW RICHMOND   CLEAR     58  55  90 SE8       30.04S
OSCEOLA        CLEAR     59  57  94 SE10      30.05R
$$

WIZ003>005-009-010-017-018-190300-
NORTH CENTRAL WISCONSIN

CITY           SKY/WX    TMP DP  RH WIND       PRES   REMARKS
WOODRUFF       CLEAR     48  46  93 CALM      30.12R FOG
RHINELANDER    CLEAR     48  46  93 SE3       30.14R
EAGLE RIVER    CLEAR     47  46  97 CALM      30.12R
LAND O LAKES   CLEAR     42  41  98 CALM      30.13R FOG
PHILLIPS       CLEAR     49  47  93 S6        30.10R
TOMAHAWK       CLEAR     46  44  96 CALM      30.14R FOG
MEDFORD        CLEAR     47  46  95 SE5       30.12R FOG
MERRILL        CLEAR     49  48  96 CALM      30.14R
$$

WIZ029-030-035-036-043>047-190300-
CENTRAL WISCONSIN

CITY           SKY/WX    TMP DP  RH WIND       PRES   REMARKS
WAUSAU         CLEAR     50  47  89 E5        30.12R
MOSINEE        CLEAR     48  48 100 SE6       30.14R
MARSHFIELD     CLEAR     50  48  93 E3        30.13R
STEVENS POINT  CLEAR     47  46  96 CALM      30.15R
WAUPACA        CLEAR     51  49  94 CALM      30.15S
WAUTOMA        CLEAR     49  48  96 CALM      30.16R
WISC RAPIDS    CLEAR     51  49  92 SE6       30.15R
CAMP DOUGLAS   CLEAR     50  50 100 E3        30.13R
$$

WIZ011>013-019>022-031-037>040-048>050-190300-
NORTHEAST WISCONSIN

CITY           SKY/WX    TMP DP  RH WIND       PRES   REMARKS
ANTIGO         CLEAR     46  45  96 SE6       30.15S
STURGEON BAY   CLEAR     48  43  81 E3        30.17S
GREEN BAY      CLEAR     49  47  93 SE3       30.17R
MANITOWOC      CLEAR     48  47  96 CALM      30.17S
APPLETON       MOCLDY    52  46  82 SE7       30.16R
CLINTONVILLE   CLEAR     46  45  93 CALM      30.16R FOG
OSHKOSH        CLEAR     53  50  89 SE7       30.15R
$$

WIZ032>034-041-042-053>061-190300-
SOUTHWEST WISCONSIN

CITY           SKY/WX    TMP DP  RH WIND       PRES   REMARKS
LA CROSSE      CLEAR     61  55  81 E7        30.08R
SPARTA         CLEAR     54  52  93 E3        30.12R
VIROQUA        FAIR      56  56 100 E7        30.11R
BOSCOBEL       CLEAR     57  54  89 NE3       30.11R
PRAIRIE DU CHI CLEAR     59  53  78 E5        30.09R
PLATTEVILLE    FAIR      56  52  86 CALM      30.12R
$$

WIZ056-057-062-063-064-067-068-190300-
SOUTH CENTRAL WISCONSIN

CITY           SKY/WX    TMP DP  RH WIND       PRES   REMARKS
BARABOO/DELLS  CLEAR     52  49  90 CALM      30.13R
LONE ROCK      CLEAR     58  51  78 E7        30.12R
WATERTOWN      CLEAR     52  52  98 E7        30.14S
MADISON        PTCLDY    58  53  84 SE7       30.14R
MIDDLETON      FAIR      51  50  98 CALM      30.13S
MONROE         CLEAR     55  54  94 E6        30.12S
JANESVILLE     CLEAR     57  54  88 E9        30.13R
$$

WIZ051-052-058>065-066-070>072-190300-
SOUTHEAST WISCONSIN

CITY           SKY/WX    TMP DP  RH WIND       PRES   REMARKS
MILWAUKEE      CLOUDY    56  51  84 NE3       30.18R
WAUKESHA       CLOUDY    52  48  87 E7        30.18R
MILWAUKEE/TIMM CLOUDY    54  48  82 NE5       30.18R
RACINE         PTCLDY    54  50  86 NE6       30.18R
BURLINGTON     CLOUDY    53  51  94 E5        30.16S
KENOSHA        PTCLDY    52  51  97 NE5       30.17R
FOND DU LAC    CLEAR     52  48  86 SE9       30.16R
SHEBOYGAN      CLEAR     45  43  93 CALM      30.17S
WEST BEND        N/A     48  46  93 CALM      30.17S FOG
JUNEAU         CLEAR     52  50  93 E8        30.16R
$$

LSZ147-162-190300-
LAKE SUPERIOR

STATION/POSITION TIME  TEMP    WIND        PRES    WAVE
                       AIR SEA DIR/SP/G            HT/PER
                 (UTC) (F)     (DEG/KT/KT) (MB)    (FT/S)
W MID LAKE BUOY  0150   47 47   90/  6/  8 1019.2R   1/ 3
DEVILS ISLAND    0200   48      90/ 10/ 11 1018.8F
PORT WING        0100   49      80/  4/  6 1018.3
SAXON HARBOR     0140   45     200/  4/  5 1018.6S
$$

LMZ867-665-643>646-190300-
LAKE MICHIGAN

STATION/POSITION TIME  TEMP    WIND        PRES    WAVE
                       AIR SEA DIR/SP/G            HT/PER
                 (UTC) (F)     (DEG/KT/KT) (MB)    (FT/S)
N MID LAKE BUOY  0150   53 58  120/  6/  8 1022.1S   0
NORTHPORT PIER   0100   53     110/  7/  9 1021.3R
KEWAUNEE LAKESHO 0100   53     100/  4/  5 1020.4R
SHEBOYGAN LAKESH 0200   52 50   30/  4/  4 1022.2R
PORT WASHINGTON  0140   56     100/  4/  5 1022.0S
ATWATER BUOY     0200   56     110/  2/  4 1022.7R
MILWAUKEE LAKESH 0200   56      80/  4/  6   N/A
S MID LAKE BUOY  0150   60 65   10/  8/ 10 1021.6R   2/ 6
KENOSHA   LAKESH 0200   56      10/  6/  7 1021.0S
$$

TC  - TEMPERATURE IN CELSIUS
VSB - VISIBILITY IN STATUTE MILES
WCI - WIND CHILL INDEX
HX  - HEAT INDEX



USA.gov is the U.S. government's official web portal to all federal, state and local government web resources and services.